Overview Statistics Trail Chart Weather Telemetry Raw packets
 

This is the latest recevied weather packets stored in our database for station/object DG0LHZ-10. If no packets are shown the sender has not sent any weather packets the latest 10 day(s).

<< 22 23 24 25 26 27 28 >>
Time Temp. Humidity Pressure Rain* Wind** Luminosity Snow
1787834571 30° C 41% 1018.1 hPa - - - -
1787833669 29.44° C 41% 1018.2 hPa - - - -
1787832769 29.44° C 42% 1018.3 hPa - - - -
1787831869 28.89° C 43% 1018.2 hPa - - - -
1787830969 28.33° C 44% 1018.4 hPa - - - -
1787830069 27.78° C 45% 1018.5 hPa - - - -
1787829169 27.22° C 45% 1018.8 hPa - - - -
1787828269 26.67° C 46% 1018.9 hPa - - - -
1787827369 26.11° C 48% 1019.2 hPa - - - -
1787826468 25.56° C 49% 1019.2 hPa - - - -
1787825568 25° C 50% 1019.1 hPa - - - -
1787824668 23.89° C 52% 1019.3 hPa - - - -
1787823768 23.33° C 52% 1019.3 hPa - - - -
1787822868 22.22° C 53% 1019.5 hPa - - - -
1787821968 21.67° C 53% 1019.6 hPa - - - -
1787821068 21.11° C 54% 1019.5 hPa - - - -
1787820168 20° C 55% 1019.6 hPa - - - -
1787819268 19.44° C 55% 1019.8 hPa - - - -
1787818368 18.33° C 56% 1020 hPa - - - -
1787817468 17.78° C 56% 1020 hPa - - - -
1787816568 17.22° C 57% 1020 hPa - - - -
1787815668 16.11° C 57% 1020.1 hPa - - - -
1787814768 15.56° C 58% 1020.3 hPa - - - -
1787813868 15° C 59% 1020.2 hPa - - - -
1787812967 14.44° C 60% 1020.1 hPa - - - -

* Rain since midnight (hover to see other rain measurements)
** Current wind speed in m/s (hover to see current wind gust speed)